K2BIG Weather Reports


time (UTC)temp
F
wind
direction
speed
knots
gust
knots
rain 1hr
in
rain 24hr
in
rain mn
in
humidity
%
barometer
mb
20260510164516 71 203 2.6 4.3 0.00 0.13 0.00 71 1012.8
20260510164015 71 203 1.7 4.3 0.00 0.13 0.00 71 1012.8
20260510163515 71 203 2.6 9.6 0.00 0.13 0.00 68 1012.8
20260510163015 71 203 2.6 6.1 0.00 0.13 0.00 72 1012.7
20260510162515 71 248 2.6 7.8 0.00 0.13 0.00 71 1012.6
20260510162015 70 225 1.7 4.3 0.00 0.14 0.00 72 1012.6
20260510161515 70 203 2.6 5.2 0.00 0.14 0.00 74 1012.8
20260510161015 69 203 2.6 5.2 0.00 0.14 0.00 76 1012.8
20260510160515 69 180 2.6 7.0 0.00 0.14 0.00 73 1012.8
20260510160015 69 180 1.7 7.8 0.00 0.14 0.00 75 1012.9
20260510155515 68 225 2.6 5.2 0.00 0.15 0.00 76 1013.0
20260510155015 68 225 1.7 3.5 0.00 0.15 0.00 77 1013.0
20260510154515 68 225 2.6 6.1 0.00 0.15 0.00 76 1013.0
20260510154015 68 225 2.6 5.2 0.00 0.15 0.00 76 1013.0
20260510153515 68 180 3.5 9.6 0.00 0.15 0.00 73 1013.0
20260510153015 68 203 1.7 6.1 0.00 0.16 0.00 76 1013.0
20260510152515 67 225 2.6 7.0 0.00 0.16 0.00 77 1013.1
20260510152015 67 225 1.7 5.2 0.00 0.16 0.00 76 1013.0
20260510151515 67 225 3.5 10.4 0.00 0.16 0.00 75 1013.0
20260510151015 67 225 1.7 4.3 0.00 0.16 0.00 77 1013.0
20260510150515 67 203 1.7 5.2 0.00 0.16 0.00 76 1013.1
20260510150020 67 248 3.5 7.8 0.00 0.16 0.00 77 1013.1
20260510145515 67 225 3.5 8.7 0.00 0.16 0.00 77 1013.1
20260510145015 67 180 4.3 10.4 0.00 0.16 0.00 78 1013.0
20260510144515 67 135 2.6 6.1 0.00 0.16 0.00 78 1013.0
20260510144015 66 225 3.5 7.8 0.00 0.16 0.00 79 1013.0
20260510143515 66 225 1.7 7.0 0.00 0.16 0.00 84 1013.0
20260510143015 65 225 4.3 7.0 0.00 0.16 0.00 82 1013.0
20260510142515 64 203 3.5 8.7 0.00 0.16 0.00 83 1012.9
20260510142015 64 203 2.6 7.0 0.00 0.16 0.00 84 1012.8
20260510141515 63 158 2.6 9.6 0.00 0.16 0.00 85 1012.9
20260510141015 62 158 2.6 7.0 0.00 0.16 0.00 86 1012.9
20260510140515 62 180 1.7 5.2 0.00 0.16 0.00 87 1012.9
20260510140015 61 158 2.6 7.0 0.00 0.16 0.00 88 1012.8
20260510135515 61 158 2.6 6.1 0.00 0.16 0.00 90 1012.9
20260510135015 60 180 1.7 6.1 0.00 0.16 0.00 94 1012.9
20260510134515 59 203 2.6 6.1 0.00 0.16 0.00 95 1013.0
20260510134015 58 180 1.7 4.3 0.00 0.16 0.00 96 1012.9
20260510133515 58 203 1.7 4.3 0.00 0.16 0.00 97 1013.0
20260510133015 57 203 1.7 3.5 0.00 0.16 0.00 98 1013.2
20260510132515 57 203 0.9 5.2 0.00 0.16 0.00 99 1013.3
20260510132015 57 248 2.6 5.2 0.00 0.16 0.00 99 1013.3
20260510131515 57 248 0.9 3.5 0.00 0.16 0.00 99 1013.3
20260510131015 57 248 1.7 3.5 0.00 0.16 0.00 99 1013.3
20260510130515 57 203 0.9 3.5 0.00 0.17 0.00 100 1013.2
20260510130015 56 0.0 3.5 0.00 0.17 0.00 100 1013.0
20260510125515 56 203 0.9 3.5 0.00 0.17 0.00 100 1013.0
20260510125015 55 0.0 1.7 0.00 0.17 0.00 100 1013.0
20260510124515 54 0.0 1.7 0.00 0.17 0.00 99 1013.0
20260510124015 54 0.0 0.9 0.00 0.17 0.00 99 1013.0
20260510123515 53 0.0 0.0 0.00 0.17 0.00 99 1013.1
20260510123015 52 0.0 0.9 0.00 0.17 0.00 99 1013.0
20260510122515 52 0.0 0.9 0.00 0.17 0.00 99 1012.8
20260510122015 51 0.0 0.0 0.00 0.17 0.00 99 1012.8
20260510121515 51 0.0 0.0 0.00 0.17 0.00 99 1012.6
20260510121015 50 0.0 0.0 0.00 0.17 0.00 99 1012.6
20260510120515 50 0.0 0.0 0.00 0.17 0.00 99 1012.6
20260510120015 50 0.0 0.0 0.00 0.17 0.00 98 1012.6
20260510115515 50 0.0 0.0 0.00 0.17 0.00 98 1012.5
20260510115015 50 0.0 0.0 0.00 0.17 0.00 98 1012.4
20260510114515 50 0.0 0.0 0.00 0.17 0.00 99 1012.4
20260510114016 50 0.0 0.0 0.00 0.17 0.00 99 1012.4
20260510113516 50 0.0 0.0 0.00 0.17 0.00 99 1012.5
20260510113015 50 0.0 0.0 0.00 0.17 0.00 99 1012.4
20260510112515 49 0.0 0.0 0.00 0.17 0.00 98 1012.3
20260510112017 49 0.0 0.0 0.00 0.17 0.00 98 1012.3
20260510111517 49 0.0 0.0 0.00 0.17 0.00 98 1012.3
20260510111018 49 0.0 0.0 0.00 0.17 0.00 98 1012.1
20260510110517 49 0.0 0.0 0.00 0.17 0.00 99 1012.1
20260510110017 49 0.0 0.0 0.00 0.17 0.00 98 1012.0
20260510105517 49 0.0 0.0 0.00 0.17 0.00 98 1011.9
20260510105017 49 0.0 0.0 0.00 0.17 0.00 98 1011.8
20260510104517 48 0.0 0.0 0.00 0.17 0.00 98 1011.9
20260510104017 48 0.0 0.0 0.00 0.17 0.00 98 1011.9
20260510103517 48 0.0 0.0 0.00 0.17 0.00 98 1011.9
20260510103017 48 0.0 0.0 0.00 0.17 0.00 98 1011.7
20260510102517 48 0.0 0.0 0.00 0.17 0.00 98 1011.7
20260510102017 48 0.0 0.0 0.00 0.17 0.00 98 1011.7
20260510101517 48 0.0 0.0 0.00 0.17 0.00 98 1011.8
20260510101017 48 0.0 0.0 0.00 0.17 0.00 98 1011.7
20260510100516 48 0.0 0.0 0.00 0.17 0.00 98 1011.6
20260510100017 48 0.0 0.0 0.00 0.17 0.00 98 1011.5
20260510095517 48 0.0 0.0 0.00 0.17 0.00 98 1011.4
20260510095017 48 0.0 0.0 0.00 0.17 0.00 98 1011.4
20260510094517 48 0.0 0.0 0.00 0.17 0.00 98 1011.5
20260510094017 48 0.0 0.0 0.00 0.17 0.00 98 1011.4
20260510093517 48 0.0 0.9 0.00 0.17 0.00 98 1011.4
20260510093017 47 0.0 1.7 0.00 0.17 0.00 98 1011.3
20260510092517 47 0.0 0.0 0.00 0.17 0.00 98 1011.1
20260510092017 47 0.0 0.0 0.00 0.17 0.00 98 1010.9
20260510091517 47 0.0 0.0 0.00 0.17 0.00 98 1011.0
20260510091016 47 0.0 0.0 0.00 0.17 0.00 98 1011.3
20260510090516 47 0.0 0.0 0.00 0.17 0.00 98 1011.1
20260510090016 47 0.0 0.0 0.00 0.17 0.00 98 1010.9
20260510085516 47 0.0 0.0 0.00 0.17 0.00 98 1010.8
20260510085016 47 0.0 0.0 0.00 0.17 0.00 98 1011.0
20260510084516 47 0.0 0.0 0.00 0.17 0.00 98 1011.1
20260510084016 47 0.0 0.0 0.00 0.17 0.00 98 1011.2
20260510083516 48 0.0 0.9 0.00 0.17 0.00 98 1011.3
20260510083016 48 0.0 0.0 0.00 0.17 0.00 98 1011.4
20260510082516 48 0.0 0.9 0.00 0.17 0.00 98 1011.4
20260510082016 48 0.0 1.7 0.00 0.17 0.00 98 1011.3
20260510081516 48 0.0 0.0 0.00 0.17 0.00 98 1011.3
20260510081016 48 0.0 0.0 0.00 0.18 0.00 98 1011.5
20260510080516 48 0.0 0.0 0.00 0.18 0.00 98 1011.6
20260510080016 48 0.0 0.9 0.00 0.18 0.00 98 1011.6
20260510075516 48 0.0 0.0 0.00 0.18 0.00 98 1011.8
20260510075016 48 0.0 0.9 0.00 0.18 0.00 98 1011.8
20260510074516 48 0.0 2.6 0.00 0.18 0.00 98 1011.7
20260510074016 48 0.0 0.0 0.00 0.18 0.00 98 1011.8
20260510073516 48 0.0 0.0 0.00 0.18 0.00 98 1011.8
20260510073016 48 0.0 0.0 0.00 0.18 0.00 98 1011.8
20260510072516 48 0.0 0.0 0.00 0.18 0.00 98 1012.0
20260510072016 48 0.0 0.9 0.00 0.19 0.00 98 1012.0
20260510071516 47 0.0 0.9 0.00 0.19 0.00 98 1012.0
20260510071016 47 0.0 0.0 0.00 0.19 0.00 98 1012.0
20260510070516 47 0.0 0.0 0.00 0.20 0.00 98 1012.2
20260510070016 47 0.0 0.0 0.00 0.20 0.00 98 1012.1
20260510065516 47 0.0 0.0 0.00 0.20 0.00 98 1012.1
20260510065016 46 0.0 0.9 0.00 0.20 0.00 98 1012.1
20260510064516 46 0.0 0.9 0.00 0.20 0.00 98 1012.0
20260510064016 46 0.0 0.0 0.00 0.20 0.00 98 1011.6
20260510063516 46 0.0 0.0 0.00 0.20 0.00 98 1011.5
20260510063016 46 0.0 0.0 0.00 0.21 0.00 98 1011.6
20260510062516 45 0.0 0.0 0.00 0.21 0.00 98 1011.4
20260510062016 45 0.0 1.7 0.00 0.21 0.00 98 1011.5
20260510061516 45 0.0 0.9 0.00 0.21 0.00 98 1011.6
20260510061016 45 0.0 0.0 0.00 0.21 0.00 98 1011.7
20260510060516 44 0.0 0.0 0.00 0.21 0.00 98 1011.6
20260510060016 44 0.0 0.0 0.00 0.21 0.00 98 1011.6
20260510055516 44 0.0 0.0 0.00 0.21 0.00 97 1011.8
20260510055016 43 0.0 0.0 0.00 0.21 0.00 97 1011.7
20260510054516 43 0.0 0.0 0.00 0.21 0.00 97 1011.8
20260510054016 43 0.0 0.0 0.00 0.21 0.00 97 1011.7
20260510053516 43 0.0 0.0 0.00 0.21 0.00 97 1011.6
20260510053016 43 0.0 0.0 0.00 0.21 0.00 97 1011.5
20260510052516 43 0.0 0.0 0.00 0.21 0.00 97 1011.3
20260510052016 43 0.0 0.0 0.00 0.21 0.00 97 1011.1
20260510051516 43 0.0 0.0 0.00 0.21 0.00 97 1011.0
20260510051016 43 0.0 0.0 0.00 0.21 0.00 97 1011.0
20260510050516 43 0.0 0.0 0.00 0.21 0.00 97 1011.2
20260510050016 43 0.0 0.0 0.00 0.21 0.00 97 1011.1
20260510045516 43 0.0 0.0 0.00 0.21 0.00 97 1011.3
20260510045016 43 0.0 0.0 0.00 0.21 0.00 96 1011.4
20260510044516 43 0.0 0.0 0.00 0.21 0.00 96 1011.4
20260510044016 43 0.0 0.0 0.00 0.21 0.00 96 1011.3
20260510043516 43 0.0 0.0 0.00 0.21 0.00 96 1011.2
20260510043016 44 0.0 0.0 0.00 0.21 0.00 96 1011.2
20260510042516 44 0.0 0.0 0.00 0.21 0.00 96 1011.0
20260510042016 44 0.0 0.0 0.00 0.21 0.00 96 1011.2
20260510041516 44 0.0 0.0 0.00 0.21 0.00 96 1011.0
20260510041016 44 0.0 0.0 0.00 0.21 0.00 96 1011.1
20260510040516 44 0.0 0.0 0.00 0.21 0.00 96 1011.1
20260510040016 44 0.0 0.0 0.00 0.21 0.21 96 1011.1
20260510035515 44 0.0 0.0 0.00 0.21 0.21 96 1010.9
20260510035015 44 0.0 0.0 0.00 0.21 0.21 96 1010.9
20260510034515 44 0.0 0.0 0.00 0.21 0.21 96 1011.0
20260510034015 45 0.0 0.0 0.00 0.21 0.21 96 1011.0
20260510033516 45 0.0 0.0 0.00 0.21 0.21 96 1010.9
20260510033015 45 0.0 1.7 0.00 0.21 0.21 96 1011.0
20260510032515 45 0.0 0.0 0.00 0.21 0.21 96 1010.9
20260510032017 45 0.0 0.0 0.00 0.21 0.21 96 1010.9
20260510031517 45 0.0 0.0 0.00 0.21 0.21 96 1011.0
20260510031017 45 0.0 0.0 0.00 0.21 0.21 96 1011.0
20260510030517 46 0.0 0.0 0.00 0.21 0.21 96 1011.1
20260510030017 46 0.0 0.0 0.00 0.21 0.21 96 1011.1
20260510025517 46 0.0 0.0 0.00 0.21 0.21 96 1011.1
20260510025017 46 0.0 0.0 0.00 0.21 0.21 96 1011.1
20260510024517 46 0.0 0.0 0.00 0.21 0.21 96 1011.1
20260510024017 47 0.0 0.0 0.00 0.21 0.21 96 1011.2
20260510023517 47 0.0 0.0 0.00 0.21 0.21 96 1011.2
20260510023017 47 0.0 0.0 0.00 0.21 0.21 96 1011.1
20260510022517 47 0.0 0.0 0.00 0.21 0.21 96 1011.2
20260510022017 47 0.0 0.0 0.00 0.21 0.21 96 1011.0
20260510021517 47 0.0 0.0 0.00 0.21 0.21 96 1010.9
20260510021017 47 0.0 0.0 0.00 0.21 0.21 96 1010.9
20260510020517 48 0.0 0.0 0.00 0.21 0.21 96 1011.0
20260510020017 48 0.0 0.0 0.00 0.21 0.21 96 1010.9
20260510015517 48 0.0 0.0 0.00 0.21 0.21 96 1010.8
20260510015017 48 0.0 0.0 0.00 0.21 0.21 96 1010.8
20260510014517 49 0.0 0.0 0.00 0.21 0.21 96 1010.8
20260510014017 49 0.0 0.0 0.00 0.21 0.21 96 1010.8
20260510013516 49 0.0 0.0 0.00 0.21 0.21 96 1010.9
20260510013017 49 0.0 0.0 0.00 0.21 0.21 96 1010.8
20260510012517 49 0.0 0.0 0.00 0.21 0.21 96 1010.8
20260510012022 50 0.0 0.0 0.00 0.21 0.21 96 1010.7
20260510011516 50 0.0 0.0 0.00 0.21 0.21 96 1010.6
20260510011016 50 0.0 0.0 0.00 0.21 0.21 96 1010.6
20260510010517 50 0.0 0.0 0.00 0.21 0.21 96 1010.6
20260510010016 50 0.0 0.0 0.00 0.21 0.21 96 1010.4
20260510005517 51 0.0 0.0 0.00 0.21 0.21 96 1010.4
20260510005016 51 0.0 0.0 0.00 0.21 0.21 95 1010.4
20260510004516 51 0.0 0.0 0.00 0.21 0.21 96 1010.4
20260510004017 51 0.0 0.0 0.00 0.21 0.21 95 1010.2
20260510003516 51 0.0 0.0 0.00 0.21 0.21 95 1010.2
20260510003016 52 0.0 0.0 0.00 0.21 0.21 96 1010.2
20260510002516 52 0.0 1.7 0.00 0.21 0.21 95 1009.9
20260510002016 52 0.0 1.7 0.00 0.21 0.21 95 1009.9
20260510001517 52 0.0 2.6 0.00 0.21 0.21 96 1010.0
20260510001016 52 0.0 1.7 0.00 0.21 0.21 95 1009.9
20260510000517 53 0.0 1.7 0.00 0.21 0.21 95 1009.8
20260510000016 53 0.0 0.0 0.00 0.21 0.21 95 1009.7
20260509235516 53 0.0 0.0 0.00 0.21 0.21 95 1009.8
20260509235016 53 0.0 1.7 0.00 0.21 0.21 95 1009.7
20260509234516 53 0.0 0.0 0.00 0.21 0.21 95 1009.6
20260509234016 54 0.0 0.0 0.00 0.21 0.21 95 1009.6
20260509233516 54 0.0 0.0 0.00 0.21 0.21 95 1009.5
20260509233016 54 0.0 0.0 0.00 0.21 0.21 96 1009.6
20260509232516 54 0.0 2.6 0.00 0.21 0.21 96 1009.6
20260509232016 54 0.0 2.6 0.00 0.21 0.21 95 1009.5
20260509231516 54 0.0 1.7 0.00 0.21 0.21 96 1009.4
20260509231016 55 0.0 1.7 0.00 0.21 0.21 96 1009.6
20260509230517 55 158 0.9 3.5 0.00 0.21 0.21 96 1009.7
20260509230016 55 0.0 1.7 0.00 0.21 0.21 96 1009.7
20260509225516 55 158 0.9 3.5 0.00 0.21 0.21 96 1009.7
20260509225016 55 0.0 1.7 0.00 0.21 0.21 96 1009.7
20260509224516 55 180 0.9 4.3 0.00 0.21 0.21 96 1009.7
20260509224016 55 0.0 0.9 0.00 0.21 0.21 97 1009.7
20260509223516 54 0.0 1.7 0.00 0.21 0.21 96 1009.7
20260509223016 54 0.0 0.9 0.00 0.21 0.21 96 1009.7
20260509222516 54 0.0 2.6 0.00 0.21 0.21 96 1009.7
20260509222016 54 0.0 4.3 0.00 0.21 0.21 96 1009.7
20260509221516 54 0.0 0.0 0.00 0.21 0.21 96 1009.6
20260509221016 54 0.0 0.0 0.00 0.21 0.21 96 1009.5
20260509220516 54 0.0 1.7 0.00 0.21 0.21 96 1009.5
20260509220016 55 0.0 1.7 0.00 0.21 0.21 96 1009.7
20260509215516 55 0.0 1.7 0.01 0.21 0.21 96 1009.7
20260509215016 55 0.0 1.7 0.01 0.21 0.21 96 1009.9
20260509214516 55 0.0 1.7 0.01 0.21 0.21 96 1009.9
20260509214016 55 0.0 1.7 0.01 0.21 0.21 96 1010.0
20260509213516 55 0.0 2.6 0.01 0.21 0.21 96 1010.1
20260509213016 55 180 0.9 3.5 0.01 0.21 0.21 96 1010.1
20260509212516 55 0.0 0.9 0.01 0.21 0.21 96 1009.8
20260509212016 55 0.0 0.9 0.02 0.21 0.21 96 1010.0
20260509211516 55 0.0 2.6 0.02 0.21 0.21 96 1010.1
20260509211016 55 158 0.9 3.5 0.02 0.21 0.21 96 1010.2
20260509210516 55 158 0.9 3.5 0.03 0.21 0.21 97 1010.2
20260509210016 55 0.0 1.7 0.03 0.21 0.21 96 1010.1
20260509205516 55 0.0 0.9 0.02 0.20 0.20 96 1010.1
20260509205016 55 0.0 1.7 0.02 0.20 0.20 96 1010.2
20260509204516 54 0.0 1.7 0.03 0.20 0.20 96 1010.3
20260509204016 54 0.0 0.9 0.03 0.20 0.20 96 1010.4
20260509203516 54 0.0 0.0 0.03 0.20 0.20 96 1010.5
20260509203016 54 0.0 1.7 0.03 0.20 0.20 96 1010.5
20260509202516 54 0.0 0.9 0.03 0.20 0.20 96 1010.6
20260509202016 54 0.0 1.7 0.02 0.19 0.19 96 1010.7
20260509201516 54 0.0 2.6 0.03 0.19 0.19 96 1010.7
20260509201016 54 0.0 0.9 0.03 0.19 0.19 96 1010.8
20260509200516 54 180 0.9 3.5 0.02 0.18 0.18 95 1010.8
20260509200016 54 203 0.9 3.5 0.02 0.18 0.18 95 1010.9
20260509195516 54 158 0.9 3.5 0.03 0.18 0.18 96 1010.9
20260509195016 54 0.0 1.7 0.03 0.18 0.18 95 1011.0
20260509194516 54 180 0.9 4.3 0.03 0.17 0.17 95 1011.1
20260509194016 54 0.0 4.3 0.04 0.17 0.17 95 1011.1
20260509193516 54 0.0 3.5 0.04 0.17 0.17 95 1011.1
20260509193016 54 180 0.9 3.5 0.05 0.17 0.17 95 1011.2
20260509192516 54 158 0.9 3.5 0.05 0.17 0.17 95 1011.2
20260509192017 54 203 0.9 3.5 0.05 0.17 0.17 95 1011.3
20260509191516 54 180 1.7 4.3 0.05 0.16 0.16 95 1011.4
20260509191016 54 180 0.9 3.5 0.05 0.16 0.16 95 1011.4
20260509190516 54 158 2.6 6.1 0.05 0.16 0.16 95 1011.5
20260509190016 54 180 1.7 5.2 0.05 0.16 0.16 95 1011.6
20260509185516 54 203 1.7 5.2 0.05 0.15 0.15 95 1011.8
20260509185016 54 225 0.9 4.3 0.05 0.15 0.15 95 1011.9
20260509184516 54 203 1.7 6.1 0.04 0.14 0.14 95 1011.9
20260509184016 54 203 1.7 6.1 0.03 0.13 0.14 95 1011.9
20260509183516 54 225 2.6 7.0 0.04 0.13 0.13 95 1011.8
20260509183016 54 180 1.7 5.2 0.03 0.12 0.12 95 1011.9
20260509182516 55 203 2.6 7.8 0.03 0.12 0.12 95 1011.7
20260509182016 55 180 2.6 7.8 0.03 0.12 0.12 95 1011.8
20260509181516 55 203 1.7 7.0 0.03 0.11 0.11 95 1011.7
20260509181016 55 225 1.7 3.5 0.03 0.12 0.11 96 1011.7
20260509180516 55 203 1.7 3.5 0.03 0.12 0.11 96 1011.6
20260509180016 55 203 0.9 3.5 0.03 0.12 0.11 96 1011.6
20260509175515 55 270 0.9 4.3 0.02 0.11 0.10 96 1011.6
20260509175016 55 0.0 0.9 0.02 0.11 0.10 96 1011.4
20260509174515 55 270 0.9 2.6 0.02 0.11 0.10 96 1011.5
20260509174016 55 0.0 1.7 0.02 0.11 0.10 96 1011.5
20260509173516 55 0.0 1.7 0.01 0.10 0.09 96 1011.5
20260509173016 54 0.0 0.0 0.01 0.10 0.09 96 1011.3
20260509172516 54 0.0 0.0 0.01 0.10 0.09 96 1011.4
20260509172015 54 0.0 0.0 0.02 0.10 0.09 96 1011.2
20260509171516 54 0.0 0.0 0.01 0.09 0.08 95 1011.2
20260509171015 54 0.0 0.0 0.01 0.09 0.08 95 1011.3
20260509170515 54 0.0 0.0 0.01 0.09 0.08 95 1011.3
20260509170015 54 0.0 0.0 0.01 0.09 0.08 95 1011.3
20260509165516 54 0.0 0.0 0.02 0.09 0.08 95 1011.3
20260509165015 54 0.0 0.0 0.02 0.09 0.08 95 1011.4